Showing default

INTELSAT 2-F2, 2639

Orbit data source: Space-Track

INTELSAT 2-F2, 2639 is a payload satellite owned by INTELSAT (US) in GEO that was launched on Wed, 11 Jan 1967 UTC via a THOR DELTA E1 launch vehicle from the Air Force Eastern Test Range (AFETR). Payload-class satellites include a variety of spacecraft equipped with specific instruments for various scientific and technological missions. These include communications satellites like Starlink; space stations such as the ISS; scientific satellites like the Hubble; Earth observation satellites from companies like Planet Labs, Umbra, and HawkEye 360; GPS; miniature CubeSats for education and research; and military/defense satellites.

Not visible in the next 10 days
Identifier
2639, 1967-001A
Orbit
GEO
Last TLE update
1 day ago
Origin
Manufacturer
Hughes
Mission
Non-operational Civil Communications
Bus & Motor
HS-303, SVM-1
Mass
163 kg wet, ~65 kg dry
Launch date (UTC)
1967-01-11 (58 years ago)
Launch vehicle
THOR DELTA E1
Launch site
Air Force Eastern Test Range (AFETR)
Object type
Payload
Rocket body
Debris
Shape & HBR
Cyl, 1.4 m
Radar Cross Section
2.199 m², Large (>1 m²)

Expand to show TLE details & history

TLE from 1 day ago
0 INTELSAT 2-F2
1 02639U 67001A   25191.04628027  .00000072  00000-0  00000-0 0  9990
2 02639   2.3731  80.8624 0005520 184.8034  49.6133  1.00210668115812
Epoch: 2025-07-10T01:06Z
TLE epoch observation values (Epoch: 2025-07-10T01:06:38.615Z)
Latitude
-1.9587°
Longitude
10.43028°
Altitude
35,788.309 km
Speed
3.075 km/s
True Right ascension
21h 01m 14s
True Declination
-1° 57' 24"
Sunlit
Object was in daylight at epoch
Visualization orbit readout
Latitude
-1.83292°
Longitude
5.39931°
Altitude
35,786.698 km
Speed
3.075 km/s
Apparent Right ascension
21h 03m 58s
Apparent Declination
-6° 56' 53"
Sunlit
Object is in daylight
Visualization observer readout
Local Sidereal Time
12:59:47
Azimuth
74.51° E
Elevation
-28.05°
Doppler factor
1
Orbital elements
Apogee altitude
35,828.089 km
Perigee altitude
35,781.519 km
Semi-major axis
42,182.941 km
Eccentricity
0.00055
Inclination
2.3731°
RAAN
80.8624°
Arg. of periapsis
184.8034°
True anomaly
Unknown
Mean anomaly
49.6133°
Eccentric anomaly
Unknown
Mean motion
0.25052 °/min
Orbital period
1,437.03 mins
BSTAR
0
Loading historical data...
2639 neighbors
Loading maneuver chart data...
Loading SW <> Apogee altitude chart data...

INTELSAT 2-F2 Visibility

Observer location: undefined°, undefined°

INTELSAT 2-F2 is likely not visible in the next few days
Span
Click to sort rows by Start time (UTC) header in descending order
Start Az.
Max El. time (UTC)
Max El. Az.
Max El.
End time (UTC)
End Az.
|